EDT,Max TemperatureF,Mean TemperatureF,Min TemperatureF,Max Dew PointF,MeanDew PointF,Min DewpointF,Max Humidity, Mean Humidity, Min Humidity, Max Sea Level PressureIn, Mean Sea Level PressureIn, Min Sea Level PressureIn, Max VisibilityMiles, Mean VisibilityMiles, Min VisibilityMiles, Max Wind SpeedMPH, Mean Wind SpeedMPH, Max Gust SpeedMPH,PrecipitationIn, CloudCover, Events, WindDirDegrees
2013-7-1,82,77,71,75,72,69,100,93,85,30.02,29.92,29.84,10,7,0,15,5,23,1.20,6,Fog-Rain-Thunderstorm,166
2013-7-2,80,76,72,75,73,70,100,93,85,30.18,30.10,30.02,10,7,2,9,5,13,0.37,6,Rain,156
2013-7-3,85,80,74,76,74,71,100,87,74,30.25,30.20,30.16,10,7,1,17,5,22,0.27,6,Rain-Thunderstorm,159
2013-7-4,89,82,74,75,73,68,100,76,52,30.27,30.24,30.19,10,8,2,17,8,23,0.00,5,,140
2013-7-5,89,81,72,76,73,71,100,80,59,30.26,30.24,30.17,10,7,1,24,5,28,0.68,3,Rain-Thunderstorm,127
2013-7-6,88,80,72,74,71,68,100,77,53,30.24,30.20,30.14,10,9,6,17,5,22,0.00,2,,151
2013-7-7,91,80,69,74,71,68,100,76,52,30.20,30.16,30.08,10,9,3,13,5,17,0.00,2,,193
2013-7-8,89,81,73,76,73,71,94,77,59,30.19,30.15,30.10,10,7,1,13,4,17,0.70,5,Rain-Thunderstorm,219
2013-7-9,87,81,74,76,74,72,94,82,70,30.18,30.14,30.08,10,8,1,14,4,20,0.29,5,Rain-Thunderstorm,194
2013-7-10,90,82,74,74,72,68,100,75,50,30.13,30.05,29.97,10,10,9,15,6,20,0.00,2,,194
2013-7-11,91,82,73,73,72,69,94,73,52,29.99,29.94,29.88,10,7,1,17,6,22,0.91,5,Rain-Thunderstorm,203
2013-7-12,81,77,73,73,72,70,94,87,79,29.98,29.92,29.87,10,9,2,12,4,14,0.22,5,Rain-Thunderstorm,139
2013-7-13,79,76,73,75,74,70,94,90,85,30.13,30.05,29.98,10,7,1,17,7,25,0.48,7,Rain-Thunderstorm,81
2013-7-14,89,81,73,75,73,70,94,73,52,30.27,30.21,30.13,10,10,8,24,8,30,T,2,,108
2013-7-15,92,83,74,75,73,68,100,75,49,30.30,30.27,30.23,10,8,1,13,5,16,0.00,4,,75
2013-7-16,95,83,71,75,72,68,100,72,44,30.29,30.23,30.17,10,9,4,10,2,15,0.00,1,Thunderstorm,295
2013-7-17,94,85,75,77,74,70,94,72,49,30.21,30.17,30.10,10,8,3,13,3,18,0.08,2,Rain-Thunderstorm,129
2013-7-18,93,84,75,75,73,69,100,73,46,30.15,30.11,30.05,10,8,2,9,3,14,0.00,3,,207
2013-7-19,93,83,73,74,72,69,93,71,49,30.13,30.08,30.01,10,10,5,15,6,21,0.00,0,,214
2013-7-20,91,83,75,73,72,69,94,73,52,30.07,30.02,29.95,10,10,10,18,8,23,0.00,2,,211
2013-7-21,89,82,74,76,73,72,94,79,63,30.02,29.98,29.93,10,9,2,13,5,16,0.00,6,,206
2013-7-22,90,82,74,75,73,71,100,78,56,29.97,29.93,29.86,10,8,5,15,7,20,T,5,,231
2013-7-23,92,84,75,73,72,71,88,70,52,29.88,29.82,29.74,10,10,9,17,8,22,0.00,3,,234
2013-7-24,92,82,72,74,71,66,94,73,52,29.83,29.78,29.75,10,8,2,15,4,17,0.00,1,Thunderstorm,200
2013-7-25,87,80,72,70,69,68,93,73,53,30.01,29.89,29.78,10,10,8,13,7,18,T,3,,16
2013-7-26,91,80,69,71,66,61,90,65,40,30.09,30.04,30.00,10,9,4,10,4,13,0.00,0,,88
2013-7-27,90,80,69,74,70,66,97,72,47,30.06,29.99,29.93,10,7,2,13,4,17,0.33,3,Rain,157
2013-7-28,88,81,73,75,72,70,100,80,59,30.01,29.96,29.91,10,6,2,9,4,14,0.03,3,Rain,229
2013-7-29,90,81,71,75,73,69,100,78,56,30.15,30.07,30.01,10,6,2,22,5,26,0.07,5,Rain-Thunderstorm,237
2013-7-30,91,81,70,73,69,63,100,71,41,30.19,30.15,30.12,10,6,0,12,3,15,0.00,4,Fog,28
2013-7-31,87,79,71,74,72,68,100,81,61,30.14,30.08,30.01,10,9,3,10,4,17,0.00,3,,159